When you browse on this site, cookies collect data to enhance your experience and personalize the content and advertising you see.
Visit our Privacy Policy to learn more. By continuing to use the site, you agree to this use of cookies and data.
  • In Hungary
  • List of Countries
  • For 7 days
  • Water Temperature
  • Weather Map
  • News
  • Weather Widgets
  • user-avatar
    Login

    Hourly Weather Sariwon

    Today, 14 November, Thursday

    Time Temperature Precipitation Wind Pressure Humidity
    00:00 -4°C° 0 mm 7 mps 765 mmHg 48%
    01:00 -4°C° 0 mm 6 mps 765 mmHg 47%
    02:00 -5°C° 0 mm 5 mps 765 mmHg 45%
    03:00 -4°C° 0 mm 4 mps 766 mmHg 43%
    04:00 -4°C° 0 mm 4 mps 766 mmHg 41%
    05:00 -4°C° 0 mm 4 mps 766 mmHg 40%
    06:00 -5°C° 0 mm 5 mps 767 mmHg 37%
    07:00 -5°C° 0 mm 5 mps 767 mmHg 35%
    08:00 -2°C° 0 mm 3 mps 767 mmHg 28%
    09:00 -1°C° 0 mm 3 mps 767 mmHg 29%
    10:00 0°C° 0 mm 3 mps 767 mmHg 30%
    11:00 +1°C° 0 mm 3 mps 767 mmHg 31%
    12:00 +1°C° 0 mm 3 mps 766 mmHg 31%
    13:00 +3°C° 0 mm 2 mps 765 mmHg 31%
    14:00 +5°C° 0 mm 1 mps 764 mmHg 31%
    15:00 +4°C° 0 mm 1 mps 764 mmHg 38%
    16:00 +2°C° 0 mm 2 mps 764 mmHg 44%
    17:00 +1°C° 0 mm 2 mps 764 mmHg 50%
    18:00 +1°C° 0 mm 2 mps 763 mmHg 54%
    19:00 -1°C° 0 mm 3 mps 763 mmHg 59%
    20:00 -1°C° 0 mm 3 mps 763 mmHg 63%
    21:00 +1°C° 0 mm 3 mps 763 mmHg 65%
    22:00 +1°C° 0 mm 4 mps 762 mmHg 67%
    23:00 +2°C° 0 mm 5 mps 762 mmHg 70%

    Tomorrow, 15 November, Friday

    Time Temperature Precipitation Wind Pressure Humidity
    00:00 +5°C° 0.1 mm 5 mps 761 mmHg 74%
    01:00 +6°C° 0.1 mm 5 mps 760 mmHg 78%
    02:00 +7°C° 0.1 mm 5 mps 759 mmHg 83%
    03:00 +7°C° 0.3 mm 4 mps 759 mmHg 83%
    04:00 +7°C° 0.3 mm 4 mps 759 mmHg 83%
    05:00 +8°C° 0.3 mm 3 mps 759 mmHg 83%
    06:00 +8°C° 0 mm 3 mps 759 mmHg 83%
    07:00 +7°C° 0 mm 3 mps 759 mmHg 82%
    08:00 +7°C° 0 mm 2 mps 759 mmHg 82%
    09:00 +8°C° 0 mm 2 mps 760 mmHg 74%
    10:00 +9°C° 0 mm 3 mps 760 mmHg 67%
    11:00 +9°C° 0 mm 3 mps 760 mmHg 59%
    12:00 +9°C° 0 mm 3 mps 760 mmHg 54%
    13:00 +8°C° 0 mm 4 mps 760 mmHg 48%
    14:00 +8°C° 0 mm 4 mps 759 mmHg 43%
    15:00 +7°C° 0 mm 4 mps 760 mmHg 45%
    16:00 +5°C° 0 mm 3 mps 760 mmHg 48%
    17:00 +5°C° 0 mm 2 mps 760 mmHg 50%
    18:00 +4°C° 0 mm 2 mps 761 mmHg 51%
    19:00 +4°C° 0 mm 2 mps 761 mmHg 53%
    20:00 +3°C° 0 mm 2 mps 761 mmHg 54%
    21:00 +4°C° 0 mm 1 mps 762 mmHg 55%
    22:00 +3°C° 0 mm 1 mps 762 mmHg 55%
    23:00 +3°C° 0 mm 1 mps 763 mmHg 56%

    Day after tomorrow, 16 November, Saturday

    Time Temperature Precipitation Wind Pressure Humidity
    00:00 +3°C° 0 mm 1 mps 763 mmHg 56%
    01:00 +2°C° 0 mm 1 mps 762 mmHg 57%
    02:00 +2°C° 0 mm 1 mps 762 mmHg 57%
    03:00 +2°C° 0 mm 1 mps 763 mmHg 58%
    04:00 +1°C° 0 mm 1 mps 763 mmHg 58%
    05:00 +1°C° 0 mm 1 mps 763 mmHg 58%
    06:00 +2°C° 0 mm 1 mps 763 mmHg 54%
    07:00 +3°C° 0 mm 1 mps 764 mmHg 51%
    08:00 +4°C° 0 mm 1 mps 764 mmHg 47%
    09:00 +6°C° 0 mm 1 mps 764 mmHg 42%
    10:00 +8°C° 0 mm 1 mps 764 mmHg 38%
    11:00 +8°C° 0 mm 2 mps 764 mmHg 33%
    12:00 +9°C° 0 mm 2 mps 764 mmHg 32%
    13:00 +9°C° 0 mm 2 mps 764 mmHg 31%
    14:00 +10°C° 0 mm 2 mps 763 mmHg 30%
    15:00 +9°C° 0 mm 2 mps 763 mmHg 34%
    16:00 +7°C° 0 mm 2 mps 764 mmHg 38%
    17:00 +7°C° 0 mm 1 mps 764 mmHg 42%
    18:00 +6°C° 0 mm 1 mps 764 mmHg 44%
    19:00 +6°C° 0 mm 1 mps 764 mmHg 45%
    20:00 +5°C° 0 mm 1 mps 764 mmHg 47%
    21:00 +5°C° 0 mm 1 mps 765 mmHg 47%
    22:00 +4°C° 0 mm 0 mps 765 mmHg 47%
    23:00 +4°C° 0 mm 0 mps 765 mmHg 47%

    17 November, Sunday

    Time Temperature Precipitation Wind Pressure Humidity
    00:00 +3°C° 0 mm 0 mps 765 mmHg 47%
    01:00 +4°C° 0 mm 1 mps 765 mmHg 48%
    02:00 +4°C° 0 mm 1 mps 765 mmHg 48%
    03:00 +4°C° 0 mm 1 mps 765 mmHg 48%
    04:00 +4°C° 0 mm 1 mps 765 mmHg 47%
    05:00 +4°C° 0 mm 1 mps 765 mmHg 47%
    06:00 +5°C° 0 mm 1 mps 765 mmHg 46%
    07:00 +6°C° 0 mm 1 mps 764 mmHg 45%
    08:00 +7°C° 0 mm 1 mps 764 mmHg 44%
    09:00 +8°C° 0 mm 2 mps 764 mmHg 40%
    10:00 +10°C° 0 mm 2 mps 763 mmHg 36%
    11:00 +12°C° 0 mm 3 mps 763 mmHg 32%
    12:00 +12°C° 0 mm 3 mps 762 mmHg 36%
    13:00 +11°C° 0 mm 4 mps 761 mmHg 40%
    14:00 +11°C° 0 mm 4 mps 760 mmHg 43%
    15:00 +10°C° 0.5 mm 5 mps 759 mmHg 54%
    16:00 +9°C° 0.5 mm 5 mps 758 mmHg 64%
    17:00 +9°C° 0.5 mm 6 mps 757 mmHg 75%
    18:00 +10°C° 4.9 mm 7 mps 756 mmHg 81%
    19:00 +11°C° 4.9 mm 9 mps 755 mmHg 86%
    20:00 +12°C° 4.9 mm 10 mps 754 mmHg 92%
    21:00 +12°C° 5.9 mm 8 mps 754 mmHg 94%
    22:00 +11°C° 5.9 mm 6 mps 753 mmHg 95%
    23:00 +12°C° 5.9 mm 4 mps 753 mmHg 97%

    18 November, Monday

    Time Temperature Precipitation Wind Pressure Humidity
    00:00 +10°C° 1.1 mm 6 mps 753 mmHg 92%
    01:00 +9°C° 1.1 mm 7 mps 754 mmHg 87%
    02:00 +8°C° 1.1 mm 9 mps 754 mmHg 83%
    03:00 +6°C° 0 mm 9 mps 755 mmHg 80%
    04:00 +3°C° 0 mm 10 mps 756 mmHg 76%
    05:00 +1°C° 0 mm 10 mps 757 mmHg 73%
    06:00 0°C° 0 mm 10 mps 758 mmHg 71%
    07:00 -2°C° 0 mm 10 mps 760 mmHg 69%
    08:00 -3°C° 0 mm 9 mps 761 mmHg 67%
    09:00 -4°C° 0 mm 9 mps 761 mmHg 63%
    10:00 -4°C° 0 mm 9 mps 762 mmHg 59%
    11:00 -4°C° 0 mm 9 mps 762 mmHg 55%
    12:00 -4°C° 0 mm 8 mps 762 mmHg 55%
    13:00 -4°C° 0 mm 8 mps 762 mmHg 54%
    14:00 -4°C° 0 mm 8 mps 761 mmHg 54%
    15:00 -3°C° 0 mm 7 mps 762 mmHg 57%
    16:00 -3°C° 0 mm 6 mps 762 mmHg 61%
    17:00 -2°C° 0 mm 5 mps 763 mmHg 64%
    18:00 -2°C° 0.2 mm 5 mps 763 mmHg 67%
    19:00 -4°C° 0.2 mm 5 mps 763 mmHg 69%
    20:00 -4°C° 0.2 mm 5 mps 763 mmHg 71%
    21:00 -3°C° 0.3 mm 4 mps 763 mmHg 69%
    22:00 -3°C° 0.3 mm 4 mps 763 mmHg 68%
    23:00 -3°C° 0.3 mm 4 mps 763 mmHg 66%

    19 November, Tuesday

    Time Temperature Precipitation Wind Pressure Humidity
    00:00 -2°C° 0.3 mm 3 mps 763 mmHg 73%
    01:00 -2°C° 0.3 mm 3 mps 763 mmHg 81%
    02:00 -2°C° 0.3 mm 2 mps 763 mmHg 88%
    03:00 -2°C° 0.3 mm 2 mps 763 mmHg 87%
    04:00 -2°C° 0.3 mm 2 mps 763 mmHg 86%
    05:00 -2°C° 0.3 mm 2 mps 763 mmHg 84%
    06:00 -2°C° 0.1 mm 3 mps 763 mmHg 77%
    07:00 -3°C° 0.1 mm 4 mps 764 mmHg 70%
    08:00 -2°C° 0.1 mm 5 mps 764 mmHg 63%
    09:00 -2°C° 0 mm 5 mps 764 mmHg 62%
    10:00 -2°C° 0 mm 6 mps 764 mmHg 61%
    11:00 -2°C° 0 mm 6 mps 764 mmHg 60%
    12:00 -2°C° 0 mm 6 mps 764 mmHg 58%
    13:00 -2°C° 0 mm 6 mps 764 mmHg 56%
    14:00 -1°C° 0 mm 7 mps 764 mmHg 55%
    15:00 -1°C° 0 mm 5 mps 764 mmHg 57%
    16:00 -2°C° 0 mm 4 mps 764 mmHg 60%
    17:00 -2°C° 0 mm 3 mps 765 mmHg 63%
    18:00 -2°C° 0 mm 2 mps 765 mmHg 63%
    19:00 -3°C° 0 mm 2 mps 766 mmHg 64%
    20:00 -3°C° 0 mm 2 mps 766 mmHg 64%
    21:00 -1°C° 0 mm 1 mps 767 mmHg 63%
    22:00 -2°C° 0 mm 1 mps 767 mmHg 61%
    23:00 -2°C° 0 mm 1 mps 767 mmHg 60%
    Show more